Hourly Data Report for June 07, 2020

TRENTON A
ONTARIO
Current Station Operator: DND

44°07'00.000" N
77°32'00.000" W
86.30 m
6158875
71621
YTR

Download Data

Hourly Data (June 2020)
Hourly Data Report for June 7, 2020
TIME
LST
Temp Definition
°C
Dew Point Definition
°C
Rel Hum Definition
%
Precip. Amount Definition
mm

Wind Dir Definition
10's deg

Wind Spd Definition
km/h
Visibility Definition
km
Stn Press Definition
kPa
Hmdx Definition


Wind Chill Definition


Weather Definition


00:00 13.6 9.1 74   36 13 24.1 100.52     Clear
01:00 12.6 9.2 80   34 11 24.1 100.54     Clear
02:00 12.1 8.7 80   34 9 24.1 100.57     Clear
03:00 11.5 7.9 79   34 15 24.1 100.55     Clear
04:00 10.8 7.6 81   34 15 24.1 100.59     Clear
05:00 10.4 7.1 80   33 17 24.1 100.66     Clear
06:00 11.1 6.9 75   34 13 24.1 100.76     Clear
07:00 12.4 7.7 73   36 9 24.1 100.71     Clear
08:00 14.2 8.4 68   35 9 24.1 100.75     Clear
09:00 16.0 9.1 64   34 13 24.1 100.75     Clear
10:00 17.9 8.4 54   3 11 24.1 100.77     Clear
11:00 19.4 7.8 47   36 15 24.1 100.79     Mainly Clear
12:00 20.0 6.4 43   24 11 24.1 100.79     Mainly Clear
13:00 18.7 9.0 53   23 21 24.1 100.71     Mainly Clear
14:00 18.9 9.5 54   23 22 24.1 100.65     Mainly Clear
15:00 19.1 9.1 52   23 24 24.1 100.64     Mainly Clear
16:00 19.6 8.4 48   22 17 24.1 100.64     Mainly Clear
17:00 19.4 9.0 51   21 21 24.1 100.59     Mainly Clear
18:00 18.5 9.4 55   22 18 24.1 100.60     Mainly Clear
19:00 17.4 9.1 58   21 15 24.1 100.62     Mainly Clear
20:00 16.1 8.9 62   22 9 24.1 100.62     Mostly Cloudy
21:00 14.1 9.0 71   2 4 24.1 100.67     Mostly Cloudy
22:00 12.3 9.2 81   1 4 24.1 100.69     Mainly Clear
23:00 12.6 9.5 81   36 5 24.1 100.69     Mainly Clear

Notes on Data Quality.

Legend

  • E = Estimated
  • M = Missing
  • NA = Not Available*
  • [empty] = Indicates an unobserved value
Date modified: